sat.trackr.live / text

‹ back to catalog

STARLINK-3359

NORAD 51148 · 2022-005AW

PAYLOAD ACTIVE UNKNOWN

§ Identity

Operator
Country
US
Launch date
2022-01-19
Launch site
AFETR
Launch vehicle
Mass (kg)
RCS (m²)

Purposes: comms

External: N2YO · Heavens-Above · Gunter

§ Orbital elements

Epoch: 2026-05-24T18:40:21.919872Z

Period
95.23 min
Inclination
53.2171°
Eccentricity
0.0001902
Mean motion
15.12191963 rev/d
Perigee alt
528.2 km
Apogee alt
530.8 km
Semi-major
6,907.7 km
B*
1.4588e-3
RAAN
326.7441°
Arg perigee
96.7749°
Mean anomaly
263.3461°
Rev number
24,009

§ Raw data

STARLINK-33591 51148U 22005AW  26144.77803148  .00025261  00000+0  14588-2 0  99962 51148  53.2171 326.7441 0001902  96.7749 263.3461 15.12191963240099

JSON: /api/v1/satellites/51148 · /tle

For live sub-satellite position, see the globe view (requires WebGL).

§ Visibility from observer

Set your observer location to see the next 7 days of passes ≥ 10°. The values pass through the URL so the page stays shareable.

No JS? Fill the form by hand. The geolocation button needs JavaScript.